Location: Peach Mountain Observatory
(42.3967°N, 83.9367°W)
Time: 20:55:23
(UTC-04:00)

deb Explorer IX - Pass Details

Date: 24 January 2020
Orbit: 547 x 1101 km, 38.8° (Epoch: 28 March)

Event Time Altitude Azimuth Distance (km) Brightness Sun altitude
Rises 03:15:09 0° 277° (W) 3,906 - -51.3°
Reaches altitude 10° 03:18:07 10° 271° (W) 2,925 - -50.8°
Maximum altitude 03:24:47 42° 203° (SSW) 1,420 - -49.7°
Drops below altitude 10° 03:30:52 10° 135° (SE) 2,658 - -48.6°
Sets 03:33:27 0° 128° (SE) 3,519 - -48.2°
Exits shadow 03:33:30 - 128° (SE) 3,540 ? -48.2°
